Weather in Kuritsa

Russia / Kursk Oblast     51˚53′33″N   36˚02′06″E
temp.,
°C
wind,
m/s
gust,
m/s
humid.,
%
clouds,
%
prec.,
mm/h
press.,
hPa
HPBL,
m
15 january, fri
fri1500:00−14˚se22960 0.0 100720
03:00−13˚ese339631 0.0 100838
06:00−12˚ese359795 0.2 100789
09:00−10˚se349797 0.3 100870
12:00−7˚sse3696100 0.0 1008203
15:00−7˚sse3497100 0.1 1007122
18:00−7˚se2496100 0.2 1007101
21:00−8˚se2396100 0.4 100733
16 january, sat
sat1600:00−9˚sse1197100 0.3 100721
03:00−10˚wnw2397100 0.6 100762
06:00−13˚wnw5895100 0.5 1007247
09:00−15˚wnw5995100 1.0 1009250
12:00−15˚wnw5895100 0.2 1010312
15:00−15˚wnw5994100 0.3 1011408
18:00−16˚w599599 0.1 1013376
21:00−18˚w5109698 0.1 1014281
17 january, sun
sun1700:00−20˚w4109668 0.0 1014214
03:00−20˚w499584 0.0 1015214
06:00−20˚wnw4896100 0.0 1015199
09:00−20˚w3598100 0.0 1016102
12:00−18˚wnw349594 0.0 1016229
15:00−17˚w229687 0.0 101656
18:00−18˚nw339777 0.1 101744
21:00−20˚n1210057 0.1 101820
18 january, mon
mon1800:00−22˚ne229795 0.0 101920
03:00−21˚nne229693 0.0 101926
06:00−22˚ne239799 0.0 101948
09:00−22˚ne239699 0.0 102066
12:00−20˚ne2395100 0.0 1021172
15:00−19˚ne2393100 0.0 1020232
18:00−20˚nne2396100 0.0 1021123
21:00−19˚nne2398100 0.3 1022162
19 january, tue
tue1900:00−19˚n2298100 0.7 1022153
03:00−19˚n2398100 1.2 1022184
06:00−19˚n3497100 0.4 1022215
09:00−20˚n2495100 0.4 1023162
12:00−18˚n2392100 0.0 1023233
15:00−17˚nnw3492100 0.0 1023242
18:00−19˚nnw359499 0.0 1024104
21:00−19˚nnw359299 0.0 1025116